Volver al catálogo

COSMOS 1823 DEB

ActivoLEO
NORAD 39807·DEBRIS·🇷🇺 Russia

Lanzado Feb 20, 1987 desde Plesetsk Cosmodrome

Loading…

Próximos Pases (próximas 24 horas)

TLE

EnvejeciendoSource: Space-Track

Época: Sep 12, 2026, 06:27 UTC

1 39807U 87020EF  26255.26891676  .00000202  00000-0  21533-3 0  9990
2 39807  74.0245  69.8848 0025009 157.1894  19.7135 13.80235083620620

Sigue COSMOS 1823 DEB en tiempo real con AllMySat

Download on the App Store